DECAYED

STARLINK-1349, 45587 (Decayed)

Orbit data source: Space-Track

STARLINK-1349, 45587 was a payload satellite owned by SpaceX/Seattle (US) in LEO that was launched on Wed, 22 Apr 2020 UTC via an FALCON 9 launch vehicle from the Air Force Eastern Test Range (AFETR). Payload-class satellites include a variety of spacecraft equipped with specific instruments for various scientific and technological missions. These include communications satellites like Starlink; space stations such as the ISS; scientific satellites like the Hubble; Earth observation satellites from companies like Planet Labs, Umbra, and HawkEye 360; GPS; miniature CubeSats for education and research; and military/defense satellites.

Not visible in the next 10 days
Identifier
45587, 2020-025BJ
Orbit
Decayed
Country
Flag of USUS
Related business
Manufacturer
SpaceX/Seattle
Mission
Decayed Commercial Communications
Bus & Motor
STARLINK, Unknown motor
Mass
260 kg wet, ~248 kg dry
Launch date (UTC)
2020-04-22 (6 years ago)
Launch vehicle
FALCON 9
Launch site
Air Force Eastern Test Range (AFETR)
Object type
Payload
Rocket body
Debris
Shape & HBR
Box + 1 Pan, 10.1 m
Radar Cross Section
13.562 m², Large (>1 m²)

Expand to show TLE details & history
Last TLE update: 6 months ago

TLE from 6 months ago
0 STARLINK-1349
1 45587U 20025BJ  25261.18575360  .06166527  12318-4  72267-3 0  9998
2 45587  53.0321  74.0359 0007216 322.9874  37.0672 16.35818339300302
Epoch: 2025-09-18T04:27Z
TLE epoch observation values (Epoch: 2025-09-18T04:27:29.111Z)
Latitude
Longitude
9.81364°
Altitude
174.103 km
Speed
7.805 km/s
True Right ascension
04h 56m 08s
True Declination
0° 00' 00"
Sunlit
Object was in daylight at epoch
Visualization orbit readout
Latitude
Unknown
Longitude
Unknown
Altitude
Unknown
Speed
Unknown
Apparent Right ascension
Unknown
Apparent Declination
Unknown
Sunlit
N/A
Visualization observer readout
Local Sidereal Time
01:56:03
Azimuth
Unknown
Elevation
Unknown
Doppler factor
Unknown
Orbital elements
Apogee altitude
181.97 km
Perigee altitude
172.509 km
Semi-major axis
6,555.376 km
Eccentricity
0.00072
Inclination
53.0321°
RAAN
74.0359°
Arg. of periapsis
322.9874°
True anomaly
37.11708°
Mean anomaly
37.0672°
Eccentric anomaly
37.09213°
Mean motion
4.08928 °/min
Orbital period
88.04 mins
BSTAR
0.00072267
Loading maneuver chart data...
Computing Atmospheric mass density...
Loading historical data...
Loading historical data...
Loading historical data...
Loading historical data...
Loading historical data...
Loading historical data...
Loading historical data...

Documentation

Showing up to 5 results
|